Location: Devore Heights
(34.2372°N, 117.4156°W)
Time: 01:24:49
(UTC+00:00)

A-11 Canister half - Pass Details

Date: 16 September 2024
Orbit: 1515 x 1684 km, 47.2° (Epoch: 06 October)

Event Time Altitude Azimuth Distance (km) Brightness Sun altitude
Rises 04:20:01 0° 277° (W) 4,707 12.6 -29.6°
Reaches altitude 10° 04:23:26 10° 285° (WNW) 3,707 11.9 -30.3°
Maximum altitude 04:31:57 38° 352° (N) 2,169 9.9 -31.8°
Enters shadow 04:37:29 21° 46° (NE) 2,917 10.3 -32.8°
